[[{"header":{"parameterUnit":"m.s-1","parameterCategory":1,"la1":30.2991,"la2":30.254,"lo1":-89.0895,"lo2":-89.0444,"dy":0.0017,"dx":0.0017,"nx":28,"ny":28,"refTime":"2024-09-02T03:00:00:Z","depth":0,"parameterNumber":2,"parameterNumberName":"U-component_of_WINDS"},"data":[0,0,0,0,0,0,0,0,0,0,0,0,0,0,0,0,0,0,0,0,0,0,0,0,0,0,0,0,0,0,0,0,0,0,0,0,0,0,0,0,0,0,0,0,0,0,0,0,0,0,0,0,0,0,0,0,0,0,-0.358,-0.3578,0,-0.3432,-0.3431,-0.3429,-0.3307,-0.3306,-0.3305,-0.3303,-0.3151,-0.3148,-0.3145,0,0,0,0,0,0,0,0,0,0,0,0,0,-0.3756,-0.3753,-0.358,-0.3578,-0.3576,-0.3433,-0.3431,-0.3429,-0.3307,-0.3306,-0.3304,-0.3303,-0.3152,-0.3148,-0.3145,0,0,0,0,0,0,0,0,0,0,0,0,0,-0.3651,-0.3752,-0.358,-0.3499,-0.349,-0.3433,-0.3431,-0.3428,-0.3308,-0.3306,-0.3304,-0.3302,-0.3153,-0.3149,-0.3144,-0.3156,0,0,-0.3131,-0.3129,0,0,0,0,0,0,0,0,-0.3657,-0.3645,-0.3513,-0.3504,-0.3494,-0.3386,-0.3436,-0.3337,-0.3308,-0.3377,-0.3303,-0.3301,-0.323,-0.322,-0.3196,-0.3149,-0.3143,-0.3131,-0.3128,-0.3126,-0.3125,0,0,0,0,0,0,0,-0.3664,-0.365,-0.3522,-0.3511,-0.35,-0.3469,-0.3452,-0.3417,-0.3316,-0.3371,-0.3362,-0.3346,-0.3225,-0.3201,-0.3192,-0.314,-0.3131,-0.3127,-0.3124,-0.3123,-0.3096,-0.3098,0,0,0,0,0,0,-0.3685,-0.3657,-0.3526,-0.3517,-0.3573,-0.3467,-0.3448,-0.3423,-0.3316,-0.3298,-0.3348,-0.3341,-0.3209,-0.3197,-0.3186,-0.3193,-0.3126,-0.3122,-0.312,-0.3094,-0.3096,-0.3098,0,0,0,0,0,0,-0.3689,-0.3674,-0.3532,-0.3585,-0.3564,-0.3466,-0.3439,-0.3421,-0.3396,-0.3299,-0.328,-0.3341,-0.3207,-0.3192,-0.3165,-0.3186,-0.312,-0.3116,-0.3092,-0.3095,-0.3097,-0.3208,0,0,0,0,0,0,-0.3694,-0.3676,-0.368,-0.3586,-0.3562,-0.3514,-0.344,-0.3419,-0.3389,-0.3379,-0.3288,-0.3271,-0.3204,-0.3172,-0.316,-0.3179,-0.3113,-0.3089,-0.3093,-0.3096,-0.3202,-0.3214,-0.3224,0,0,0,0,0,-0.3701,-0.3717,-0.3681,-0.3666,-0.3565,-0.3516,-0.3502,-0.3426,-0.3392,-0.3394,-0.3332,-0.3274,-0.3186,-0.317,-0.3156,-0.3174,-0.3088,-0.3092,-0.3096,-0.3197,-0.3211,-0.3224,0,0,0,0,0,0,-0.3815,-0.3703,-0.3662,-0.3648,-0.3592,-0.3495,-0.3497,-0.3444,-0.3397,-0.3389,-0.3295,-0.3276,-0.3259,-0.3213,-0.3198,-0.318,-0.3129,-0.3131,-0.321,-0.3223,-0.3235,-0.3246,-0.3109,0,0,0,0,0,-0.3839,-0.3809,-0.3712,-0.3709,-0.3683,-0.3595,-0.3571,-0.3517,-0.3456,-0.3431,-0.3367,-0.3309,-0.3268,-0.3243,-0.32,-0.3195,-0.3173,-0.32,-0.3211,-0.3221,-0.3223,-0.3217,-0.3228,-0.3112,-0.3112,-0.3112,0,0,-0.3888,-0.3822,-0.3809,-0.373,-0.3681,-0.3652,-0.3576,-0.3548,-0.3526,-0.3427,-0.3397,-0.3348,-0.3278,-0.3262,-0.3251,-0.3223,-0.3251,-0.3226,-0.3235,-0.3232,-0.3223,-0.3234,-0.3243,-0.3115,-0.3114,-0.3114,0,0,-0.3961,-0.3909,-0.39,-0.3853,-0.378,-0.3721,-0.3719,-0.363,-0.3594,-0.3563,-0.3489,-0.346,-0.3392,-0.3344,-0.3312,-0.3368,-0.3313,-0.3357,-0.3416,-0.3411,-0.342,-0.3428,-0.3448,-0.3456,-0.336,-0.336,-0.336,0,-0.403,-0.3984,-0.3903,-0.3879,-0.3847,-0.3757,-0.3748,-0.3705,-0.3622,-0.3602,-0.3572,-0.3484,-0.343,-0.3402,-0.3416,-0.3392,-0.3387,-0.3367,-0.3426,-0.3432,-0.3438,-0.3457,-0.3464,-0.3366,-0.3365,-0.3364,-0.3364,0,-0.4073,-0.4042,-0.4044,-0.3966,-0.3934,-0.3918,-0.3834,-0.3811,-0.376,-0.3705,-0.3675,-0.3607,-0.3549,-0.3538,-0.3488,-0.3503,-0.3488,-0.3443,-0.339,-0.3457,-0.3472,-0.3478,-0.3374,-0.3372,-0.337,-0.3369,0,0,-0.4213,-0.4092,-0.4094,-0.4058,-0.3971,-0.3945,-0.3925,-0.3869,-0.3851,-0.3797,-0.3778,-0.3722,-0.368,-0.3643,-0.3587,-0.3583,-0.3632,-0.3538,-0.3535,-0.3558,-0.3645,-0.3679,-0.3688,-0.3595,-0.3596,-0.3597,-0.365,0,-0.4273,-0.4232,-0.4159,-0.4142,-0.4112,-0.4027,-0.4009,-0.3954,-0.3902,-0.3869,-0.3811,-0.3773,-0.3721,-0.3698,-0.369,-0.3628,-0.3648,-0.3623,-0.3576,-0.3575,-0.3596,-0.3696,-0.3732,-0.3786,-0.3656,-0.3657,-0.3658,0,-0.4336,-0.4288,-0.4269,-0.4184,-0.4169,-0.4155,-0.4097,-0.4067,-0.4002,-0.3965,-0.3924,-0.3863,-0.3837,-0.3789,-0.3752,-0.3736,-0.3713,-0.3679,-0.368,-0.3672,-0.3621,-0.3692,-0.3801,-0.381,-0.3666,-0.3666,-0.3665,0,-0.4441,-0.4371,-0.435,-0.4322,-0.4223,-0.4215,-0.4173,-0.4107,-0.4078,-0.4028,-0.4008,-0.3956,-0.3927,-0.3888,-0.3814,-0.3786,-0.3785,-0.3731,-0.3753,-0.3755,-0.3756,-0.3757,-0.3864,-0.3741,-0.3741,-0.3741,-0.3741,0,-0.4515,-0.4507,-0.4396,-0.4384,-0.4371,-0.4287,-0.4277,-0.4228,-0.4169,-0.4145,-0.4068,-0.4047,-0.395,-0.3918,-0.3859,-0.3838,-0.3825,-0.3794,-0.3778,-0.3801,-0.3805,-0.3784,-0.3778,-0.3743,-0.3743,-0.3742,-0.3742,0,-0.463,-0.4556,-0.4528,-0.4437,-0.4414,-0.4409,-0.433,-0.4315,-0.4258,-0.4229,-0.4217,-0.4128,-0.4086,-0.4008,-0.3944,-0.3905,-0.3895,-0.3869,-0.3918,-0.3908,-0.3935,-0.3933,-0.4032,-0.404,-0.3913,-0.3915,-0.3916,0,-0.4682,-0.4674,-0.4582,-0.4561,-0.4522,-0.4489,-0.4459,-0.4376,-0.4348,-0.4275,-0.4268,-0.422,-0.4177,-0.4114,-0.4043,-0.3994,-0.3965,-0.4003,-0.3957,-0.398,-0.3966,-0.3967,-0.3966,-0.4014,-0.4016,-0.4017,-0.4018,0,-0.4783,-0.4746,-0.4707,-0.4656,-0.4623,-0.4578,-0.4529,-0.4515,-0.4421,-0.4394,-0.435,-0.4317,-0.4252,-0.4205,-0.4146,-0.4102,-0.4045,-0.4033,-0.4036,-0.4058,-0.4087,-0.4072,-0.3946,-0.4031,-0.403,-0.4029,-0.4028,-0.4028,-0.4867,-0.4856,-0.479,-0.4749,-0.4704,-0.466,-0.4641,-0.4583,-0.4545,-0.4486,-0.4439,-0.44,-0.4335,-0.4249,-0.4209,-0.4176,-0.4149,-0.4153,-0.4154,-0.4156,-0.4165,-0.4093,-0.4165,-0.4165,-0.4164,-0.4164,-0.4163,0,-0.4964,-0.4917,-0.4881,-0.4815,-0.4783,-0.4732,-0.4676,-0.4652,-0.4618,-0.4564,-0.4523,-0.4474,-0.4428,-0.4355,-0.4303,-0.4291,-0.4263,-0.428,-0.428,-0.4271,-0.4192,-0.4195,-0.4303,-0.4303,-0.4303,-0.4303,-0.4303,-0.4303,-0.501,-0.4989,-0.4945,-0.49,-0.4853,-0.4815,-0.4787,-0.4746,-0.4701,-0.465,-0.4612,-0.4564,-0.4502,-0.4445,-0.4401,-0.4381,-0.4365,-0.4391,-0.4362,-0.429,-0.4277,-0.4264,-0.4267,-0.4388,-0.4388,-0.4443,-0.4444,-0.4444]},{"header":{"parameterUnit":"m.s-1","parameterCategory":1,"la1":30.2991,"la2":30.254,"lo1":-89.0895,"lo2":-89.0444,"dy":0.0017,"dx":0.0017,"nx":28,"ny":28,"refTime":"2024-09-02T03:00:00:Z","depth":0,"parameterNumber":3,"parameterNumberName":"V-component_of_WINDS"},"data":[0,0,0,0,0,0,0,0,0,0,0,0,0,0,0,0,0,0,0,0,0,0,0,0,0,0,0,0,0,0,0,0,0,0,0,0,0,0,0,0,0,0,0,0,0,0,0,0,0,0,0,0,0,0,0,0,0,0,-0.7446,-0.7447,0,-0.7497,-0.7498,-0.7498,-0.7513,-0.7513,-0.7513,-0.7512,-0.7563,-0.7564,-0.7566,0,0,0,0,0,0,0,0,0,0,0,0,0,-0.736,-0.7362,-0.7446,-0.7447,-0.7448,-0.7497,-0.7498,-0.7499,-0.7513,-0.7513,-0.7513,-0.7512,-0.7562,-0.7564,-0.7566,0,0,0,0,0,0,0,0,0,0,0,0,0,-0.7403,-0.7362,-0.7446,-0.7461,-0.7463,-0.7497,-0.7498,-0.7499,-0.7513,-0.7513,-0.7513,-0.7512,-0.7562,-0.7564,-0.7566,-0.7589,0,0,-0.7573,-0.7574,0,0,0,0,0,0,0,0,-0.74,-0.7406,-0.7458,-0.746,-0.7462,-0.7499,-0.7486,-0.7529,-0.7513,-0.7494,-0.7512,-0.7512,-0.7542,-0.7546,-0.7556,-0.7591,-0.7593,-0.7574,-0.7575,-0.7576,-0.7577,0,0,0,0,0,0,0,-0.7397,-0.7404,-0.7467,-0.7459,-0.7461,-0.7464,-0.747,-0.7494,-0.7519,-0.7496,-0.7497,-0.7503,-0.7543,-0.7554,-0.7557,-0.7594,-0.7574,-0.7576,-0.7577,-0.7578,-0.765,-0.7651,0,0,0,0,0,0,-0.7392,-0.7401,-0.7465,-0.7468,-0.743,-0.7466,-0.7473,-0.7487,-0.7519,-0.7524,-0.7503,-0.7503,-0.755,-0.7554,-0.7559,-0.7588,-0.7576,-0.7578,-0.758,-0.765,-0.765,-0.7651,0,0,0,0,0,0,-0.739,-0.7398,-0.7463,-0.7435,-0.7444,-0.7468,-0.7485,-0.7488,-0.75,-0.7525,-0.7529,-0.751,-0.755,-0.7556,-0.7581,-0.759,-0.7579,-0.7582,-0.7649,-0.765,-0.7651,-0.7645,0,0,0,0,0,0,-0.7388,-0.7397,-0.7406,-0.7435,-0.7445,-0.7485,-0.7485,-0.749,-0.7504,-0.7505,-0.7532,-0.7537,-0.755,-0.7578,-0.7584,-0.7593,-0.7583,-0.7649,-0.765,-0.7651,-0.7645,-0.7646,-0.7646,0,0,0,0,0,-0.7385,-0.7402,-0.7407,-0.7414,-0.7457,-0.7485,-0.7491,-0.7506,-0.7504,-0.7514,-0.753,-0.7536,-0.7588,-0.758,-0.7587,-0.7597,-0.7648,-0.7649,-0.765,-0.7644,-0.7645,-0.7646,0,0,0,0,0,0,-0.7373,-0.7406,-0.7412,-0.7439,-0.746,-0.7488,-0.75,-0.7507,-0.7528,-0.7528,-0.7545,-0.7551,-0.7576,-0.7589,-0.758,-0.762,-0.7618,-0.7621,-0.7611,-0.7612,-0.7613,-0.7609,-0.7585,0,0,0,0,0,-0.7374,-0.7395,-0.7422,-0.7444,-0.7454,-0.7475,-0.7488,-0.7498,-0.752,-0.7528,-0.7546,-0.7566,-0.7587,-0.76,-0.7621,-0.7647,-0.7653,-0.7657,-0.7657,-0.7658,-0.766,-0.7674,-0.7676,-0.7655,-0.7655,-0.7655,0,0,-0.7376,-0.7396,-0.7408,-0.7442,-0.7459,-0.748,-0.7482,-0.7504,-0.7519,-0.7531,-0.7557,-0.7571,-0.7594,-0.762,-0.7632,-0.7632,-0.7667,-0.7659,-0.766,-0.7661,-0.7676,-0.7678,-0.768,-0.7655,-0.7655,-0.7655,0,0,-0.7389,-0.7407,-0.7427,-0.7444,-0.747,-0.7484,-0.7489,-0.7516,-0.7526,-0.7552,-0.7561,-0.7579,-0.7615,-0.7631,-0.7644,-0.7664,-0.767,-0.767,-0.7674,-0.7688,-0.769,-0.7691,-0.7698,-0.7701,-0.7672,-0.7672,-0.7672,0,-0.7388,-0.742,-0.7436,-0.7458,-0.7472,-0.7485,-0.7505,-0.752,-0.7551,-0.756,-0.7559,-0.7604,-0.7621,-0.7651,-0.7656,-0.7666,-0.7671,-0.7667,-0.7688,-0.769,-0.7692,-0.7699,-0.7701,-0.7672,-0.7672,-0.7672,-0.7672,0,-0.7417,-0.7439,-0.7452,-0.7482,-0.7498,-0.7518,-0.7537,-0.7551,-0.756,-0.7574,-0.76,-0.7621,-0.7646,-0.7653,-0.7662,-0.7684,-0.7683,-0.7685,-0.7683,-0.7694,-0.77,-0.7703,-0.7672,-0.7672,-0.7672,-0.7672,0,0,-0.7425,-0.7464,-0.7469,-0.7482,-0.7511,-0.7528,-0.7549,-0.7574,-0.7586,-0.7606,-0.7624,-0.7654,-0.7656,-0.767,-0.7681,-0.7693,-0.7707,-0.7693,-0.7694,-0.7695,-0.7733,-0.7731,-0.7734,-0.7711,-0.7712,-0.7712,-0.7731,0,-0.7442,-0.7481,-0.7496,-0.7527,-0.7547,-0.7559,-0.7577,-0.7597,-0.761,-0.7629,-0.7643,-0.7664,-0.7665,-0.7674,-0.7687,-0.7703,-0.7715,-0.7701,-0.7727,-0.7728,-0.7721,-0.7737,-0.7736,-0.7753,-0.7734,-0.7734,-0.7734,0,-0.7468,-0.7489,-0.7522,-0.7549,-0.7558,-0.7574,-0.7598,-0.7616,-0.7638,-0.7647,-0.7663,-0.7673,-0.7694,-0.7691,-0.7721,-0.7711,-0.7723,-0.7732,-0.7733,-0.7736,-0.7732,-0.7741,-0.7758,-0.7761,-0.7739,-0.7738,-0.7738,0,-0.747,-0.7508,-0.7532,-0.7543,-0.7575,-0.7586,-0.7599,-0.7621,-0.7635,-0.7656,-0.7665,-0.7688,-0.77,-0.7717,-0.7733,-0.7729,-0.7761,-0.7759,-0.7769,-0.7768,-0.7775,-0.7774,-0.7795,-0.7782,-0.7782,-0.7782,-0.7782,0,-0.7488,-0.7508,-0.7534,-0.7549,-0.7571,-0.7588,-0.761,-0.7624,-0.7643,-0.7661,-0.7672,-0.7688,-0.7707,-0.7726,-0.7738,-0.7761,-0.7766,-0.7774,-0.7777,-0.7773,-0.7772,-0.778,-0.778,-0.7783,-0.7783,-0.7783,-0.7782,0,-0.7495,-0.7513,-0.7541,-0.7568,-0.7576,-0.7591,-0.7614,-0.7629,-0.7643,-0.7665,-0.7671,-0.7693,-0.7715,-0.7732,-0.7761,-0.7769,-0.7793,-0.7796,-0.7786,-0.7788,-0.7797,-0.7795,-0.7823,-0.7827,-0.7812,-0.7812,-0.7812,0,-0.7505,-0.7521,-0.755,-0.7563,-0.7577,-0.7597,-0.7612,-0.7629,-0.7643,-0.767,-0.7681,-0.7704,-0.7724,-0.7759,-0.7777,-0.7799,-0.7803,-0.7811,-0.7806,-0.7802,-0.7803,-0.7802,-0.7803,-0.7811,-0.7811,-0.7812,-0.7812,0,-0.7522,-0.753,-0.755,-0.7574,-0.7591,-0.761,-0.763,-0.764,-0.766,-0.7676,-0.7699,-0.7714,-0.7744,-0.7767,-0.7791,-0.7804,-0.7811,-0.7813,-0.7816,-0.7813,-0.7806,-0.781,-0.7788,-0.7812,-0.7812,-0.7812,-0.7812,-0.7812,-0.753,-0.7545,-0.7568,-0.759,-0.7607,-0.7625,-0.764,-0.7656,-0.7676,-0.7702,-0.771,-0.7734,-0.7756,-0.7788,-0.7802,-0.7821,-0.7821,-0.7826,-0.7827,-0.7828,-0.7828,-0.7803,-0.7825,-0.7825,-0.7825,-0.7825,-0.7825,0,-0.7547,-0.7563,-0.7583,-0.761,-0.7628,-0.7634,-0.7655,-0.7669,-0.7691,-0.771,-0.7729,-0.7756,-0.7778,-0.7798,-0.782,-0.7831,-0.7835,-0.7837,-0.7836,-0.7839,-0.7826,-0.7821,-0.7833,-0.7833,-0.7833,-0.7833,-0.7833,-0.7833,-0.7558,-0.7583,-0.7593,-0.7626,-0.7641,-0.7665,-0.7677,-0.7693,-0.7709,-0.7738,-0.7757,-0.777,-0.7789,-0.7814,-0.7834,-0.7839,-0.7847,-0.7848,-0.7854,-0.7841,-0.784,-0.7839,-0.7834,-0.7849,-0.7849,-0.7865,-0.7865,-0.7865]}]]